TimeEDT,TemperatureF,Dew PointF,Humidity,Sea Level PressureIn,VisibilityMPH,Wind Direction,Wind SpeedMPH,Gust SpeedMPH,PrecipitationIn,Events,Conditions,WindDirDegrees,DateUTC
12:53 AM,59.0,57.9,96,30.13,6.0,Calm,Calm,-,N/A,,Mostly Cloudy,0,2013-08-07 04:53:00
1:53 AM,59.0,57.9,96,30.13,6.0,Calm,Calm,-,N/A,,Mostly Cloudy,0,2013-08-07 05:53:00
2:53 AM,60.1,57.9,93,30.13,9.0,Calm,Calm,-,N/A,,Mostly Cloudy,0,2013-08-07 06:53:00
3:53 AM,59.0,57.9,96,30.13,8.0,Calm,Calm,-,N/A,,Mostly Cloudy,0,2013-08-07 07:53:00
4:41 AM,59.0,57.2,94,30.14,7.0,Calm,Calm,-,N/A,,Mostly Cloudy,0,2013-08-07 08:41:00
4:51 AM,59.0,57.2,94,30.14,7.0,Calm,Calm,-,N/A,,Overcast,0,2013-08-07 08:51:00
4:53 AM,59.0,57.9,96,30.13,7.0,Calm,Calm,-,N/A,,Overcast,0,2013-08-07 08:53:00
5:53 AM,61.0,59.0,93,30.14,8.0,Calm,Calm,-,N/A,,Overcast,0,2013-08-07 09:53:00
6:24 AM,60.8,60.8,100,30.14,8.0,Calm,Calm,-,N/A,,Overcast,0,2013-08-07 10:24:00
6:53 AM,62.1,60.1,93,30.14,7.0,Calm,Calm,-,0.01,,Overcast,0,2013-08-07 10:53:00
7:04 AM,62.6,60.8,94,30.14,1.8,Calm,Calm,-,0.02,Rain,Light Rain,0,2013-08-07 11:04:00
7:10 AM,62.6,60.8,94,30.14,3.0,Calm,Calm,-,0.02,Rain,Light Rain,0,2013-08-07 11:10:00
7:53 AM,63.0,61.0,93,30.14,5.0,Calm,Calm,-,0.02,,Overcast,0,2013-08-07 11:53:00
8:53 AM,64.9,63.0,93,30.13,9.0,Calm,Calm,-,N/A,,Overcast,0,2013-08-07 12:53:00
9:53 AM,66.9,64.0,90,30.13,10.0,Calm,Calm,-,N/A,,Overcast,0,2013-08-07 13:53:00
10:48 AM,69.8,62.6,78,30.13,10.0,Calm,Calm,-,N/A,,Overcast,0,2013-08-07 14:48:00
10:53 AM,70.0,63.0,78,30.13,10.0,South,3.5,-,N/A,,Overcast,180,2013-08-07 14:53:00
11:13 AM,69.8,62.6,78,30.13,10.0,Calm,Calm,-,N/A,,Overcast,0,2013-08-07 15:13:00
11:53 AM,71.1,63.0,75,30.13,10.0,Calm,Calm,-,N/A,,Overcast,0,2013-08-07 15:53:00
12:53 PM,72.0,64.0,76,30.13,10.0,SSE,6.9,-,N/A,,Overcast,150,2013-08-07 16:53:00
1:00 PM,71.6,64.4,78,30.13,10.0,SSE,9.2,-,N/A,,Overcast,150,2013-08-07 17:00:00
1:18 PM,71.6,64.4,78,30.12,10.0,SE,9.2,-,N/A,,Overcast,140,2013-08-07 17:18:00
1:41 PM,73.4,64.4,73,30.11,10.0,SSE,6.9,-,N/A,,Overcast,160,2013-08-07 17:41:00
1:53 PM,73.9,64.9,73,30.11,10.0,SSE,4.6,-,N/A,,Overcast,160,2013-08-07 17:53:00
2:53 PM,75.9,66.0,71,30.09,10.0,SE,8.1,-,N/A,,Overcast,130,2013-08-07 18:53:00
3:53 PM,73.9,64.9,73,30.08,10.0,Variable,3.5,-,N/A,,Overcast,0,2013-08-07 19:53:00
4:29 PM,73.4,66.2,78,30.08,10.0,SSE,3.5,-,N/A,,Overcast,160,2013-08-07 20:29:00
4:53 PM,73.0,64.9,76,30.08,10.0,Variable,6.9,-,N/A,,Overcast,0,2013-08-07 20:53:00
5:53 PM,73.0,66.9,81,30.06,10.0,SE,5.8,-,N/A,,Overcast,140,2013-08-07 21:53:00
6:16 PM,71.6,66.2,83,30.07,10.0,South,4.6,-,N/A,,Overcast,180,2013-08-07 22:16:00
6:53 PM,72.0,66.0,81,30.06,10.0,SE,6.9,-,N/A,,Overcast,140,2013-08-07 22:53:00
7:53 PM,72.0,66.0,81,30.06,10.0,Calm,Calm,-,N/A,,Overcast,0,2013-08-07 23:53:00
8:53 PM,71.1,66.0,84,30.06,10.0,Variable,5.8,-,N/A,,Overcast,0,2013-08-08 00:53:00
9:53 PM,71.1,66.9,87,30.07,10.0,SSW,3.5,-,N/A,,Overcast,210,2013-08-08 01:53:00
10:45 PM,71.6,66.2,83,30.08,10.0,Variable,3.5,-,N/A,,Overcast,0,2013-08-08 02:45:00
10:53 PM,71.1,66.0,84,30.07,10.0,Calm,Calm,-,N/A,,Overcast,0,2013-08-08 02:53:00
11:53 PM,70.0,66.9,90,30.06,10.0,SSW,3.5,-,0.00,Rain,Light Rain,210,2013-08-08 03:53:00